DW9082 Weather Reports


Display with metric or nautical units.
time (UTC)temp
F
wind
direction
speed
MPH
gust
MPH
rain 1hr
in
rain 24hr
in
rain mn
in
humidity
%
barometer
mb
20260504081539 46 224 0.0 3.0 0.00 0.00 0.00 73 1015.8
20260504050019 46 207 1.0 3.0 0.00 0.00 0.00 68 1015.4
20260504044546 46 218 0.0 3.0 0.00 0.00 0.00 68 1015.4
20260504043031 46 232 0.0 3.0 0.00 0.00 0.00 67 1015.2
20260504041542 46 205 0.0 3.0 0.00 0.00 0.00 66 1015.1
20260504040039 47 174 0.0 4.0 0.00 0.00 0.00 64 1014.9
20260504034548 47 203 1.0 4.0 0.00 0.00 0.00 63 1014.8
20260504033022 47 170 1.0 4.0 0.00 0.00 0.00 62 1014.8
20260504031600 47 171 1.0 3.0 0.00 0.00 0.00 62 1014.7
20260504030041 47 195 1.0 3.0 0.00 0.00 0.00 60 1014.7
20260504024514 47 209 0.0 2.0 0.00 0.00 0.00 59 1014.8
20260504023036 48 214 1.0 4.0 0.00 0.00 0.00 58 1014.8
20260504021600 48 255 1.0 3.0 0.00 0.00 0.00 57 1014.8
20260504021502 48 180 1.0 3.0 0.00 0.00 0.00 57 1014.8
20260504020048 49 183 0.0 1.0 0.00 0.00 0.00 56 1014.7
20260504014525 49 218 0.0 3.0 0.00 0.00 0.00 54 1014.6
20260504013042 50 218 0.0 2.0 0.00 0.00 0.00 52 1014.4
20260504011524 50 231 0.0 3.0 0.00 0.00 0.00 51 1014.4
20260504010045 51 221 0.0 2.0 0.00 0.00 0.00 48 1014.1
20260504004526 52 205 0.0 3.0 0.00 0.00 0.00 47 1014.0
20260504003100 53 211 0.0 1.0 0.00 0.00 0.00 44 1013.7
20260504003002 53 211 0.0 1.0 0.00 0.00 0.00 44 1013.7
20260504001518 55 218 0.0 1.0 0.00 0.00 0.00 41 1013.4
20260504000051 56 252 1.0 4.0 0.00 0.00 0.00 38 1013.4
20260503234546 57 232 2.0 8.0 0.00 0.00 0.00 36 1013.4
20260503233050 58 280 1.0 6.0 0.00 0.00 0.00 36 1013.2
20260503231528 59 256 6.0 13.0 0.00 0.00 0.00 34 1013.1
20260503230058 59 288 5.0 13.0 0.00 0.00 0.00 34 1013.0
20260503224518 59 276 7.0 19.0 0.00 0.00 0.00 33 1012.9
20260503223054 59 290 8.0 16.0 0.00 0.00 0.00 33 1013.0
20260503221537 59 281 4.0 13.0 0.00 0.00 0.00 33 1012.9
20260503220013 59 284 4.0 13.0 0.00 0.00 0.00 34 1012.9
20260503214550 59 305 8.0 15.0 0.00 0.00 0.00 34 1013.0
20260503213036 58 264 10.0 21.0 0.00 0.00 0.00 34 1012.9
20260503211544 58 322 9.0 17.0 0.00 0.00 0.00 34 1012.9
20260503210018 58 262 10.0 21.0 0.00 0.00 0.00 34 1013.0
20260503204600 58 325 7.0 16.0 0.00 0.00 0.00 35 1013.0
20260503204505 58 298 7.0 16.0 0.00 0.00 0.00 36 1013.0
20260503203021 57 276 6.0 19.0 0.00 0.00 0.00 37 1013.1
20260503201553 57 325 9.0 21.0 0.00 0.00 0.00 34 1013.0
20260503200032 58 326 6.0 19.0 0.00 0.00 0.00 35 1013.0
20260503194524 57 316 11.0 23.0 0.00 0.00 0.00 34 1013.2
20260503193039 57 302 7.0 15.0 0.00 0.00 0.00 35 1013.3
20260503191540 57 308 10.0 18.0 0.00 0.00 0.00 34 1013.3
20260503190011 56 273 9.0 16.0 0.00 0.00 0.00 34 1013.5
20260503184546 56 340 5.0 14.0 0.00 0.00 0.00 36 1013.6
20260503183018 55 288 7.0 23.0 0.00 0.00 0.00 36 1013.9
20260503181600 55 266 11.0 19.0 0.00 0.00 0.00 37 1013.8
20260503181502 55 283 7.0 19.0 0.00 0.00 0.00 39 1013.9
20260503180034 54 260 4.0 13.0 0.00 0.00 0.00 40 1013.9
20260503174557 54 255 8.0 19.0 0.00 0.00 0.00 41 1014.1
20260503173037 54 281 6.0 21.0 0.00 0.00 0.00 41 1014.1
20260503171552 53 297 9.0 23.0 0.00 0.00 0.00 42 1014.0